sat.trackr.live / text

‹ back to catalog

STARLINK-3851

NORAD 52344 · 2022-045P

PAYLOAD ACTIVE UNKNOWN

§ Identity

Operator
Country
US
Launch date
2022-04-29
Launch site
AFETR
Launch vehicle
Mass (kg)
RCS (m²)

Purposes: comms

External: N2YO · Heavens-Above · Gunter

§ Orbital elements

Epoch: 2026-05-25T05:19:38.773056Z

Period
95.44 min
Inclination
53.2120°
Eccentricity
0.0000927
Mean motion
15.08839509 rev/d
Perigee alt
539.1 km
Apogee alt
540.4 km
Semi-major
6,917.9 km
B*
-4.0933e-5
RAAN
215.6218°
Arg perigee
81.6881°
Mean anomaly
278.4216°
Rev number
22,733

§ Raw data

STARLINK-38511 52344U 22045P   26145.22197654 -.00000939  00000+0 -40933-4 0  99902 52344  53.2120 215.6218 0000927  81.6881 278.4216 15.08839509227333

JSON: /api/v1/satellites/52344 · /tle

For live sub-satellite position, see the globe view (requires WebGL).

§ Visibility from observer

Set your observer location to see the next 7 days of passes ≥ 10°. The values pass through the URL so the page stays shareable.

No JS? Fill the form by hand. The geolocation button needs JavaScript.